World > North America > United States > Nebraska

Boone County, Nebraska Regional Weather

Lat: 41.69N, Lon: 98.05W
Wx Zone: NEZ030Web Search
Boone County Weather Warning NWS WEATHER ALERT FOR THE BOONE COUNTY, NE AREA - Issued: 414 AM CDT Thu Apr 15 2021 Boone County Weather Warning  

Ads allow us to feed your daily addiction for the world's greatest weather information. We're determined to offer quality sponsors, in the least annoying way possible.

Feedback


°F Click to change Boone County hourly weather to Imperial units.Click to change Boone County hourly weather to Metric units. °C
Boone County Weather Map
UTC Time: 4/15/2021, 13:58
Your Time:

Boone County, NE Regional Weather

Expires:202104151400;;590392
ASUS43 KOAX 151310
RWRNE 

WEATHER ROUNDUP FOR NEBRASKA
NATIONAL WEATHER SERVICE OMAHA NE
800 AM CDT THU APR 15 2021

NOTES: SATELLITE DATA IS BEING USED TO AUGMENT CLOUD COVER ABOVE
       12000 FEET.
       "FAIR" INDICATES FEW OR NO CLOUDS BELOW 12,000 FEET WITH NO
       SIGNIFICANT WEATHER AND/OR OBSTRUCTIONS TO VISIBILITY.

   

NEZ011>018-030>034-042>045-151400-
NORTHEAST NEBRASKA
  
CITY           SKY/WX    TMP DP  RH WIND       PRES   REMARKS
NORFOLK        PTSUNNY   31  26  82 NW8       30.25R WCI  23          
ALBION         SUNNY     28  26  89 NW8       30.26S WCI  20          
BLAIR          CLOUDY    33  29  85 NW5       30.23S WCI  28          
COLUMBUS       CLOUDY    32  29  88 NW3       30.27F                  
FREMONT        CLOUDY    36  31  84 W6        30.25S WCI  31          
TEKAMAH        CLOUDY    39  31  72 NW6       30.25R WCI  35          
WAYNE          SUNNY     33  30  89 NW9       30.25R WCI  25          
$$


SKY/WX - Weather  TMP - Temperature  DP - Dew Point  RH - Relative Humidity
WIND - Wind Direction/Speed PRES - Barometric Pressure VSB - Visibility
WCI - Wind Chill Index E13G22 Wind - East Wind 13 mph/Gusts of 22 mph